Flag for Germany Weather past 2 weeks in Ludwigsfelde, Brandenburg, Germany

Now
55 °F

Scattered clouds.


Feels Like: 55 °F
Forecast: 50 / 66 °F
Wind: 2 mph from West

Location: Potsdam

Current Time: May 24, 2015 at 9:36:33 AM

Latest Report: May 24, 2015 at 9:00 AM


Visibility: 19 mi

Pressure: 30.15 "Hg

Humidity: 75%

Dew point: 47 °F

Location of LudwigsfeldeLocation

Historic Weather in Ludwigsfelde — Graph

°F

Ludwigsfelde temperature yesterday

Maximum temperature yesterday: 68 °F (at 2:00 PM)
Minimum temperature yesterday: 55 °F (at 11:00 PM)
Average temperature yesterday: 61 °F

Past Weeks' High & Low Weather Summary

 TemperatureHumidityPressure
High81 °F (May 12, 4:00 PM)100% (May 15, 5:00 AM)30.39 "Hg (May 15, 5:00 AM)
Low40 °F (May 15, 6:00 AM)21% (May 11, 4:00 PM)29.59 "Hg (May 19, 4:00 AM)
Average55 °F66%30.05 "Hg
* Reported May 9 8:00 AM — May 24 8:00 AM, Ludwigsfelde, Weather by CustomWeather, © 2015

Note: Actual official high and low records may vary slightly from our data, if they occured in-between our weather recording intervals... More about our weather records

Advertising

Ludwigsfelde weather history for previous 24 hours

 ConditionsComfort  
Time TempWeatherWind HumidityBarometerVisibility
8:00 AM
Sun, May 24
49 °FPassing clouds.1 mph89%30.15 "Hg14 mi
7:00 AM45 °FPassing clouds.1 mph96%30.15 "Hg14 mi
6:00 AM43 °FScattered clouds.2 mph99%30.15 "Hg16 mi
5:00 AM43 °FScattered clouds.2 mph97%30.14 "Hg19 mi
4:00 AM44 °FPassing clouds.3 mph96%30.14 "Hg25 mi
3:00 AM45 °FClear.3 mph94%30.14 "Hg28 mi
2:00 AM47 °FPassing clouds.3 mph93%30.14 "Hg31 mi
1:00 AM49 °FPassing clouds.3 mph89%30.14 "Hg31 mi
12:00 AM51 °FPassing clouds.3 mph83%30.13 "Hg31 mi
11:00 PM
Sat, May 23
55 °FPassing clouds.6 mph77%30.12 "Hg31 mi
10:00 PM56 °FPassing clouds.5 mph79%30.11 "Hg28 mi
9:00 PM58 °FOvercast.6 mph72%30.09 "Hg22 mi
8:00 PM61 °FOvercast.5 mph68%30.08 "Hg19 mi
7:00 PM63 °FPartly sunny.6 mph64%30.07 "Hg19 mi
6:00 PM64 °FPartly sunny.6 mph67%30.07 "Hg19 mi
5:00 PM66 °FOvercast.6 mph60%30.06 "Hg19 mi
4:00 PM67 °FOvercast.5 mph51%30.06 "Hg19 mi
3:00 PM66 °FOvercast.3 mph56%30.07 "Hg19 mi
2:00 PM68 °FOvercast.3 mph48%30.07 "Hg19 mi
1:00 PM66 °FPartly sunny.2 mph52%30.09 "Hg17 mi
12:00 PM62 °FOvercast.3 mph61%30.11 "Hg17 mi
11:00 AM65 °FOvercast.3 mph59%30.11 "Hg17 mi
10:00 AM65 °FOvercast.3 mph54%30.11 "Hg19 mi
9:00 AM62 °FPartly sunny.3 mph64%30.11 "Hg19 mi
Weather by CustomWeather, © 2015

See weather overviewHow to use our weather pages